TimeCST,TemperatureF,Dew PointF,Humidity,Sea Level PressureIn,VisibilityMPH,Wind Direction,Wind SpeedMPH,Gust SpeedMPH,PrecipitationIn,Events,Conditions,WindDirDegrees,DateUTC
12:58 AM,35.6,23.0,60,30.24,10.0,North,8.1,-,N/A,,Clear,350,2013-03-03 06:58:00
1:58 AM,34.2,24.3,67,30.22,10.0,NW,6.9,-,N/A,,Clear,320,2013-03-03 07:58:00
2:58 AM,33.1,24.4,71,30.21,10.0,NW,6.9,-,N/A,,Clear,320,2013-03-03 08:58:00
3:58 AM,31.6,25.0,76,30.21,10.0,NW,5.8,-,N/A,,Clear,310,2013-03-03 09:58:00
4:58 AM,30.9,24.8,78,30.23,10.0,NW,9.2,-,N/A,,Clear,320,2013-03-03 10:58:00
5:58 AM,30.4,24.6,79,30.24,10.0,NNW,10.4,-,N/A,,Clear,330,2013-03-03 11:58:00
6:58 AM,30.6,24.1,77,30.25,10.0,NNW,9.2,-,N/A,,Clear,330,2013-03-03 12:58:00
7:58 AM,33.8,23.0,65,30.28,10.0,NNW,11.5,-,N/A,,Clear,330,2013-03-03 13:58:00
8:58 AM,37.4,22.8,56,30.28,10.0,North,10.4,-,N/A,,Clear,360,2013-03-03 14:58:00
9:58 AM,40.8,21.7,47,30.27,10.0,North,9.2,-,N/A,,Clear,350,2013-03-03 15:58:00
10:58 AM,44.6,19.4,37,30.26,10.0,NW,10.4,-,N/A,,Clear,320,2013-03-03 16:58:00
11:58 AM,47.3,18.9,32,30.22,10.0,NW,10.4,-,N/A,,Clear,320,2013-03-03 17:58:00
12:58 PM,50.2,18.1,28,30.19,10.0,NNW,8.1,-,N/A,,Clear,340,2013-03-03 18:58:00
1:58 PM,52.9,18.3,26,30.17,10.0,NNW,10.4,-,N/A,,Clear,330,2013-03-03 19:58:00
2:58 PM,54.9,18.9,24,30.17,10.0,WNW,9.2,-,N/A,,Clear,300,2013-03-03 20:58:00
3:58 PM,55.9,21.0,26,30.16,10.0,NW,4.6,-,N/A,,Clear,310,2013-03-03 21:58:00
4:58 PM,55.2,20.1,25,30.16,10.0,Variable,2.3,-,N/A,,Clear,0,2013-03-03 22:58:00
5:58 PM,52.0,27.0,38,30.16,10.0,Variable,2.3,-,N/A,,Clear,0,2013-03-03 23:58:00
6:58 PM,48.0,28.9,48,30.18,10.0,Calm,Calm,-,N/A,,Clear,340,2013-03-04 00:58:00
7:58 PM,47.3,32.2,56,30.19,10.0,West,2.3,-,N/A,,Clear,270,2013-03-04 01:58:00
8:58 PM,45.7,31.8,58,30.20,10.0,West,2.3,-,N/A,,Clear,260,2013-03-04 02:58:00
9:58 PM,44.1,32.0,63,30.20,10.0,Calm,Calm,-,N/A,,Clear,0,2013-03-04 03:58:00
10:58 PM,45.5,33.6,63,30.18,10.0,WSW,5.8,-,N/A,,Clear,240,2013-03-04 04:58:00
11:58 PM,46.9,39.2,74,30.17,10.0,SW,9.2,-,N/A,,Clear,230,2013-03-04 05:58:00